Date String (YYYY-MM-DD hh:mm:ss) UTC,Instrument flags,absolute air pressure of the measurement (hPa),sample flow rate (lpm),inlet stack bypass flow (lpm),air temperature of the measurement (°C),ambient temperature measured by the external sensor (°C),aerosol sample conditioner tube jacket temperature (°C),OPC LED temperature (°C),internal box temperature (°C),relative humidity of the measurement (%),span deviation,mass concentration of particles derived from Lorenz-Mie calculation of OPC scattering (μg/m³),mass concentration of particles derived from Lorenz-Mie calculation of OPC scattering (μg/m³),mass concentration of particles derived from Lorenz-Mie calculation of OPC scattering (μg/m³)
DateTimeUTC,F1_M11,P_M11,Q1_M11,Q2_M11,T1_M11,T2_M11,T3_M11,T4_M11,T5_M11,U1_M11,ZSPAN_M11,X0_M11,X2_M11,X1_M11
2023-08-17 09:00:00,SystemResetWarning,0834.0,5.00,000.00,028.1,026.7,000.0,036.5,029.9,23.5,0003.8,0013.33,0007.92,0007.27
2023-08-17 09:01:00,SystemResetWarning,0834.0,5.00,000.00,028.2,026.9,000.0,036.6,029.9,23.5,0003.5,0014.29,0008.10,0007.41
2023-08-17 09:02:00,SystemResetWarning,0834.0,4.99,000.00,028.2,027.0,000.0,036.6,030.0,23.5,0003.4,0014.65,0008.32,0007.59
2023-08-17 09:03:00,SystemResetWarning,0834.0,5.00,000.00,028.2,027.1,000.0,036.6,030.0,23.4,0003.6,0014.72,0008.54,0007.81
2023-08-17 09:04:00,SystemResetWarning,0834.0,5.00,000.00,028.3,027.2,000.0,036.6,030.1,23.4,0003.8,0015.45,0008.81,0008.06
2023-08-17 09:05:00,SystemResetWarning,0834.0,5.00,000.00,028.3,027.3,000.0,036.7,030.1,23.4,0003.8,0016.03,0009.06,0008.29
2023-08-17 09:06:00,SystemResetWarning,0834.0,4.99,000.00,028.4,026.7,000.0,036.7,030.1,23.4,0003.5,0016.11,0009.34,0008.55
2023-08-17 09:07:00,SystemResetWarning,0834.0,5.01,000.00,028.3,024.7,000.0,036.6,029.7,23.4,0003.3,0016.22,0009.66,0008.86
2023-08-17 09:08:00,SystemResetWarning,0834.0,5.00,000.00,028.2,023.7,000.0,036.5,029.4,23.5,0003.3,0016.71,0010.00,0009.18
2023-08-17 09:09:00,SystemResetWarning,0834.0,5.01,000.00,028.1,023.8,000.0,036.4,029.3,23.7,0002.9,0017.90,0010.39,0009.53
2023-08-17 09:10:00,SystemResetWarning,0834.0,5.00,000.00,028.0,024.2,000.0,036.4,029.3,23.9,0002.5,0018.65,0010.75,0009.84
2023-08-17 09:11:00,SystemResetWarning,0834.0,5.00,000.00,027.9,024.7,000.0,036.5,029.4,24.0,0002.1,0019.33,0011.04,0010.09
2023-08-17 09:12:00,SystemResetWarning,0834.1,5.00,000.00,027.9,025.1,000.0,036.5,029.5,24.0,0001.8,0019.56,0011.38,0010.37
2023-08-17 09:13:00,SystemResetWarning,0834.1,5.00,000.00,027.9,025.5,000.0,036.5,029.6,24.0,0001.7,0020.09,0011.72,0010.65
2023-08-17 09:14:00,SystemResetWarning,0834.1,5.00,000.00,028.0,025.8,000.0,036.5,029.6,24.0,0001.3,0020.53,0011.99,0010.87
2023-08-17 09:15:00,SystemResetWarning,0834.1,4.99,000.00,028.0,026.1,000.0,036.5,029.7,24.0,0001.1,0020.13,0012.17,0011.10
2023-08-17 09:16:00,SystemResetWarning,0834.1,4.99,000.00,028.0,026.4,000.0,036.5,029.7,24.0,0000.6,0020.06,0012.44,0011.33
2023-08-17 09:17:00,SystemResetWarning,0834.1,5.01,000.00,028.1,026.6,000.0,036.5,029.8,24.0,0000.8,0020.25,0012.58,0011.49
2023-08-17 09:18:00,SystemResetWarning,0834.2,5.01,000.00,028.1,026.7,000.0,036.6,029.9,24.0,0001.3,0020.56,0012.71,0011.61
2023-08-17 09:19:00,SystemResetWarning,0834.1,5.00,000.00,028.2,026.9,000.0,036.6,029.9,24.0,0001.5,0021.13,0012.85,0011.74
2023-08-17 09:20:00,SystemResetWarning,0834.1,5.00,000.00,028.2,027.0,000.0,036.6,030.0,24.0,0001.6,0020.44,0012.94,0011.84
2023-08-17 09:21:00,SystemResetWarning,0834.2,5.00,000.00,028.2,027.1,000.0,036.6,030.0,23.9,0001.8,0020.35,0013.08,0011.98
2023-08-17 09:22:00,SystemResetWarning,0834.2,5.00,000.00,028.3,027.2,000.0,036.7,030.1,23.9,0002.3,0021.37,0013.34,0012.16
2023-08-17 09:23:00,SystemResetWarning,0834.2,4.99,000.00,028.3,027.3,000.0,036.7,030.1,24.0,0002.3,0021.80,0013.50,0012.32
2023-08-17 09:24:00,SystemResetWarning,0834.2,5.00,000.00,028.4,027.3,000.0,036.7,030.2,24.0,0002.3,0022.02,0013.61,0012.49
2023-08-17 09:25:00,SystemResetWarning,0834.1,4.98,000.00,028.4,026.1,000.0,036.6,030.0,24.0,0002.6,0022.21,0013.82,0012.68
2023-08-17 09:26:00,SystemResetWarning,0834.2,5.01,000.00,028.3,024.8,000.0,036.5,029.7,24.3,0002.5,0023.03,0013.96,0012.81
2023-08-17 09:27:00,SystemResetWarning,0834.2,5.01,000.00,028.2,024.8,000.0,036.5,029.7,24.3,0002.5,0022.97,0014.03,0012.90
2023-08-17 09:28:00,SystemResetWarning,0834.2,4.99,000.00,028.2,025.0,000.0,036.6,029.6,24.4,0002.1,0023.08,0014.18,0013.02
2023-08-17 09:29:00,SystemResetWarning,0834.2,5.00,000.00,028.1,025.4,000.0,036.6,029.6,24.6,0001.9,0023.42,0014.30,0013.11
2023-08-17 09:30:00,SystemResetWarning,0834.4,5.01,000.00,028.1,025.7,000.0,036.6,029.7,24.6,0001.7,0023.90,0014.36,0013.19
2023-08-17 09:31:00,SystemResetWarning,0834.5,5.00,000.00,028.2,026.0,000.0,036.6,029.8,24.7,0001.5,0024.05,0014.46,0013.30
2023-08-17 09:32:00,SystemResetWarning,0834.5,4.99,000.00,028.2,026.3,000.0,036.6,029.9,24.6,0001.4,0024.80,0014.54,0013.41
2023-08-17 09:33:00,SystemResetWarning,0834.5,5.00,000.00,028.2,026.5,000.0,036.7,029.9,24.6,0001.0,0024.94,0014.55,0013.49
2023-08-17 09:34:00,SystemResetWarning,0834.5,5.00,000.00,028.2,026.7,000.0,036.7,030.0,24.7,0001.3,0024.49,0014.60,0013.57
2023-08-17 09:35:00,SystemResetWarning,0834.6,5.00,000.00,028.3,026.9,000.0,036.7,030.0,24.7,0001.8,0024.49,0014.66,0013.65
2023-08-17 09:36:00,SystemResetWarning,0834.4,5.01,000.00,028.3,027.0,000.0,036.7,030.1,24.7,0001.8,0024.85,0014.70,0013.73
2023-08-17 09:37:00,SystemResetWarning,0834.3,5.01,000.00,028.3,027.2,000.0,036.7,030.1,24.7,0002.1,0024.18,0014.76,0013.80
2023-08-17 09:38:00,SystemResetWarning,0834.3,5.00,000.00,028.4,027.3,000.0,036.8,030.2,24.7,0002.5,0024.42,0014.84,0013.90
2023-08-17 09:39:00,SystemResetWarning,0834.3,4.99,000.00,028.4,027.3,000.0,036.8,030.2,24.7,0003.0,0024.82,0014.98,0014.04
2023-08-17 09:40:00,SystemResetWarning,0834.3,4.99,000.00,028.4,025.9,000.0,036.7,030.0,24.7,0003.1,0024.38,0015.10,0014.17
2023-08-17 09:41:00,SystemResetWarning,0834.4,5.00,000.00,028.4,024.8,000.0,036.6,029.9,24.8,0003.1,0024.38,0015.23,0014.30
2023-08-17 09:42:00,SystemResetWarning,0834.5,5.00,000.00,028.3,024.8,000.0,036.6,029.7,24.9,0003.4,0025.47,0015.33,0014.39
2023-08-17 09:43:00,SystemResetWarning,0834.4,5.01,000.00,028.2,025.0,000.0,036.6,029.6,25.0,0003.8,0025.29,0015.44,0014.46
2023-08-17 09:44:00,SystemResetWarning,0834.4,5.01,000.00,028.2,025.4,000.0,036.7,029.7,25.1,0003.9,0025.94,0015.49,0014.54
2023-08-17 09:45:00,SystemResetWarning,0834.4,4.99,000.00,028.2,025.7,000.0,036.7,029.8,25.1,0003.8,0026.25,0015.55,0014.62
2023-08-17 09:46:00,SystemResetWarning,0834.3,5.00,000.00,028.2,026.0,000.0,036.7,029.9,25.1,0003.7,0026.72,0015.72,0014.75
2023-08-17 09:47:00,SystemResetWarning,0834.3,5.00,000.00,028.2,026.3,000.0,036.7,029.9,25.1,0003.8,0026.87,0015.83,0014.85
2023-08-17 09:48:00,SystemResetWarning,0834.3,4.99,000.00,028.3,026.6,000.0,036.7,030.0,25.2,0003.8,0027.40,0015.97,0014.97
2023-08-17 09:49:00,SystemResetWarning,0834.4,5.00,000.00,028.3,026.8,000.0,036.7,030.0,25.4,0003.9,0027.67,0016.07,0015.06
2023-08-17 09:50:00,SystemResetWarning,0834.3,4.99,000.00,028.3,026.9,000.0,036.8,030.1,25.4,0004.0,0027.50,0016.08,0015.10
2023-08-17 09:51:00,SystemResetWarning,0834.4,5.00,000.00,028.4,027.1,000.0,036.8,030.1,25.2,0003.9,0027.31,0016.15,0015.17
2023-08-17 09:52:00,SystemResetWarning,0834.4,5.00,000.00,028.4,027.2,000.0,036.8,030.2,25.0,0003.8,0026.50,0016.21,0015.24
2023-08-17 09:53:00,SystemResetWarning,0834.4,5.00,000.00,028.4,027.2,000.0,036.8,030.2,25.0,0003.7,0025.46,0016.30,0015.32
2023-08-17 09:54:00,SystemResetWarning,0834.4,4.99,000.00,028.4,025.6,000.0,036.7,029.9,25.0,0003.7,0025.76,0016.44,0015.45
2023-08-17 09:55:00,SystemResetWarning,0834.3,5.01,000.00,028.3,024.7,000.0,036.6,029.7,25.1,0003.8,0025.52,0016.57,0015.53
2023-08-17 09:56:00,SystemResetWarning,0834.3,5.00,000.00,028.3,024.7,000.0,036.6,029.6,25.4,0003.6,0025.33,0016.67,0015.59
2023-08-17 09:57:00,SystemResetWarning,0834.3,5.01,000.00,028.2,025.0,000.0,036.6,029.6,25.6,0003.8,0025.05,0016.66,0015.61
2023-08-17 09:58:00,SystemResetWarning,0834.4,5.00,000.00,028.2,025.4,000.0,036.7,029.7,25.6,0003.7,0025.29,0016.70,0015.64
2023-08-17 09:59:00,SystemResetWarning,0834.4,5.00,000.00,028.2,025.7,000.0,036.7,029.7,25.6,0003.3,0024.67,0016.70,0015.67
